This is the latest recevied weather packets stored in our database for station/object KB9HUO. If no packets are shown the sender has not sent any weather packets the latest 10 day(s).
| Time | Temp. | Humidity | Pressure | Rain* | Wind** | Luminosity | Snow |
|---|---|---|---|---|---|---|---|
| 1777557624 | 10.56° C | 68% | 1018.8 hPa | 0 mm | - | 54 W/m² | - |
| 1777557320 | 10° C | 68% | 1018.9 hPa | 0 mm | - | 46 W/m² | - |
| 1777557016 | 10° C | 70% | 1018.9 hPa | 0 mm | - | 45 W/m² | - |
| 1777556712 | 10° C | 71% | 1018.8 hPa | 0 mm | - | 48 W/m² | - |
| 1777556409 | 10° C | 72% | 1019.3 hPa | 0 mm | - | 46 W/m² | - |
| 1777556103 | 10° C | 72% | 1019 hPa | 0 mm | - | 42 W/m² | - |
| 1777555803 | 9.44° C | 76% | 1019 hPa | 0 mm | - | 42 W/m² | - |
| 1777555500 | 9.44° C | 74% | 1018.9 hPa | 0 mm | - | 45 W/m² | - |
| 1777555196 | 8.89° C | 74% | 1018.9 hPa | 0 mm | - | 40 W/m² | - |
| 1777554894 | 8.89° C | 76% | 1018.9 hPa | 0 mm | - | 56 W/m² | - |
| 1777554590 | 8.89° C | 79% | 1018.6 hPa | 0 mm | - | 38 W/m² | - |
| 1777554287 | 8.89° C | 79% | 1018.7 hPa | 0 mm | - | 43 W/m² | - |
| 1777553984 | 8.33° C | 79% | 1018.9 hPa | 0 mm | - | 36 W/m² | - |
| 1777553681 | 8.33° C | 81% | 1018.8 hPa | 0 mm | - | 34 W/m² | - |
| 1777553378 | 7.78° C | 83% | 1018.7 hPa | 0 mm | - | 33 W/m² | - |
| 1777553073 | 7.78° C | 84% | 1018.7 hPa | 0 mm | - | 32 W/m² | - |
| 1777552768 | 7.78° C | 84% | 1018.6 hPa | 0 mm | - | 31 W/m² | - |
| 1777552464 | 7.22° C | 85% | 1018.7 hPa | 0 mm | - | 30 W/m² | - |
| 1777552161 | 7.22° C | 87% | 1018.5 hPa | 0 mm | - | 29 W/m² | - |
| 1777551858 | 6.67° C | 88% | 1018.5 hPa | 0 mm | - | 28 W/m² | - |
| 1777551556 | 6.67° C | 90% | 1018.3 hPa | 0 mm | - | 26 W/m² | - |
| 1777551253 | 6.67° C | 92% | 1018.5 hPa | 0 mm | - | 25 W/m² | - |
| 1777550949 | 6.11° C | 94% | 1018.3 hPa | 0 mm | - | 24 W/m² | - |
| 1777550646 | 6.11° C | 95% | 1018.4 hPa | 0 mm | - | 23 W/m² | - |
| 1777550342 | 5.56° C | 95% | 1018.3 hPa | 0 mm | - | 22 W/m² | - |
* Rain latest hour (hover to see other rain measurements)
** Current wind speed in m/s (hover to see current wind gust speed)